Alta, CA

4:59 PM PST on January 17, 2017 (GMT -0800)
Blue Canyon-Nyack

Weather History for KBLU - April, 2014

Change the Weather History Date:

Sunday, April 13, 2014

  Actual Average Record
Temperature  
Mean Temperature 55 °F -  
Max Temperature 64 °F 51 °F 82 °F (1985)
Min Temperature 46 °F 36 °F 17 °F (1972)
Degree Days  
Heating Degree Days 10    
Growing Degree Days 5 (Base 50)    
Moisture  
Dew Point 12 °F    
Average Humidity 24    
Maximum Humidity 56    
Minimum Humidity 8    
Precipitation  
Precipitation 0.00 in - - ()
Sea Level Pressure  
Sea Level Pressure 29.94 in    
Wind  
Wind Speed 6 mph (NE)    
Max Wind Speed 15 mph    
Max Gust Speed 30 mph    
Visibility 10 miles    
Events      
Averages and records for this station are not official NWS values.
T = Trace of Precipitation, MM = Missing Value Source: NWS Daily Summary

Daily Weather History Graph

Daily Weather History Graph

Search for Another Location

Airport or City:

Trip Planner

Search our weather history database for the weather conditions in past years. The results will help you decide how hot, cold, wet, or windy it might be!

Date:

Astronomy

Apr. 13, 2014 Rise Set
Actual Time 6:28 AM PDT 7:38 PM PDT
Civil Twilight 6:01 AM PDT 8:06 PM PDT
Nautical Twilight 5:28 AM PDT 8:39 PM PDT
Astronomical Twilight 4:53 AM PDT 9:13 PM PDT
Moon 6:22 PM PDT (4/13) 5:29 AM PDT (4/13)
Length of Visible Light 14h 05m
Length of Day
13h 09m
Waxing Gibbous, 97% of the Moon is Illuminated
Apr 13
Waxing Gibbous
Apr 15
Full
Apr 22
Last Quarter
Apr 28
New
May 6
First Quarter

Hourly Weather History & Observations

Time (PDT) Temp. Dew Point Humidity Pressure Visibility Wind Dir Wind Speed Gust Speed Precip Events Conditions
12:52 AM 51.1 °F 36.0 °F 56% 29.86 in 10.0 mi ENE 3.5 mph - N/A   Clear
1:52 AM 51.1 °F 36.0 °F 56% 29.86 in 10.0 mi NE 3.5 mph - N/A   Clear
2:52 AM 51.1 °F 35.1 °F 54% 29.86 in 10.0 mi NE 3.5 mph - N/A   Clear
3:52 AM 51.1 °F 33.1 °F 50% 29.85 in 10.0 mi North 3.5 mph - N/A   Clear
4:52 AM 50.0 °F 33.1 °F 52% 29.86 in 10.0 mi NNE 4.6 mph - N/A   Clear
5:52 AM 48.0 °F 33.1 °F 56% 29.89 in 10.0 mi NE 6.9 mph - N/A   Clear
6:52 AM 46.9 °F 17.1 °F 30% 29.93 in 10.0 mi NE 5.8 mph - N/A   Clear
7:52 AM 48.9 °F 12.0 °F 23% 29.94 in 10.0 mi Variable 4.6 mph - N/A   Clear
8:52 AM 53.1 °F 10.9 °F 19% 29.95 in 10.0 mi Variable 5.8 mph - N/A   Clear
9:52 AM 54.0 °F 7.0 °F 15% 29.97 in 10.0 mi ENE 10.4 mph 16.1 mph N/A   Clear
10:52 AM 57.0 °F 9.0 °F 15% 29.97 in 10.0 mi Variable 6.9 mph 18.4 mph N/A   Clear
11:52 AM 60.1 °F 10.0 °F 14% 29.97 in 10.0 mi NE 5.8 mph - N/A   Clear
12:52 PM 62.1 °F 6.1 °F 11% 29.95 in 10.0 mi North - - N/A   Clear
1:52 PM 62.1 °F 5.0 °F 10% 29.96 in 10.0 mi Variable 5.8 mph - N/A   Clear
2:52 PM 64.0 °F 5.0 °F 10% 29.95 in 10.0 mi Variable 6.9 mph - N/A   Clear
3:52 PM 64.0 °F 3.0 °F 9% 29.94 in 10.0 mi North - - N/A   Clear
4:52 PM 64.0 °F -0.0 °F 8% 29.95 in 10.0 mi ENE 5.8 mph - N/A   Clear
5:52 PM 63.0 °F 3.9 °F 10% 29.95 in 10.0 mi Variable 4.6 mph - N/A   Clear
6:52 PM 60.1 °F 3.0 °F 10% 29.98 in 10.0 mi North - - N/A   Clear
7:52 PM 54.0 °F -0.0 °F 11% 30.00 in 10.0 mi ENE 8.1 mph 17.3 mph N/A   Clear
8:52 PM 52.0 °F -4.0 °F 10% 30.01 in 10.0 mi ENE 11.5 mph 23.0 mph N/A   Clear
9:52 PM 52.0 °F -0.0 °F 12% 30.01 in 10.0 mi ENE 12.7 mph 25.3 mph N/A   Clear
10:52 PM 51.1 °F -0.0 °F 12% 30.00 in 10.0 mi ENE 13.8 mph 26.5 mph N/A   Clear
11:52 PM 51.1 °F 3.0 °F 14% 29.99 in 10.0 mi ENE 15.0 mph 29.9 mph N/A   Clear